Location: Saint-Palais-sur-Mer
(45.6429°N, 1.0859°W)
Time: 00:32:47
(UTC+01:00)

Tiros 1 despin weight - Pass Details

Date: 08 February 2026
Orbit: 556 x 593 km, 48.2° (Epoch: 13 March)

Event Time Altitude Azimuth Distance (km) Brightness Sun altitude
Rises 19:21:14 0° 217° (SW) 2,719 ? -11.0°
Reaches altitude 10° 19:23:39 10° 206° (SSW) 1,828 ? -11.4°
Maximum altitude 19:27:19 30° 145° (SE) 999 ? -12.0°
Enters shadow 19:29:37 18° 95° (E) 1,386 ? -12.4°
Drops below altitude 10° 19:31:01 10° 83° (E) 1,843 - -12.7°
Sets 19:33:28 0° 73° (ENE) 2,746 - -13.1°
